Location: Geremba
(10.4250°N, 67.2394°W)
Time: 22:03:02
(UTC+00:00)

Ariane H10 - Pass Details

Date: 23 May 2024
Orbit: 340 x 27083 km, 6.8° (Epoch: 22 June)

Event Time Altitude Azimuth Distance (km) Brightness Sun altitude
Exits shadow 08:31:52 14° 130° (SE) 1,075 3.5 -22.0°
Drops below altitude 10° 08:32:22 10° 121° (ESE) 1,265 4.1 -21.9°
Sets 08:34:14 0° 104° (ESE) 2,166 5.6 -21.5°
